TimeEDT,TemperatureF,Dew PointF,Humidity,Sea Level PressureIn,VisibilityMPH,Wind Direction,Wind SpeedMPH,Gust SpeedMPH,PrecipitationIn,Events,Conditions,WindDirDegrees,DateUTC
12:15 AM,55.4,53.6,94,29.33,6.0,SSE,11.5,21.9,N/A,,Overcast,160,2012-10-18 04:15:00
12:35 AM,55.4,53.6,94,29.32,6.0,SSE,12.7,19.6,0.01,,Overcast,160,2012-10-18 04:35:00
12:55 AM,55.4,51.8,88,29.32,5.0,SE,10.4,-,0.02,,Overcast,140,2012-10-18 04:55:00
1:15 AM,55.4,53.6,94,29.31,5.0,SE,13.8,-,0.02,,Overcast,140,2012-10-18 05:15:00
1:35 AM,55.4,51.8,88,29.30,6.0,SE,15.0,-,0.04,,Overcast,130,2012-10-18 05:35:00
1:55 AM,55.4,51.8,88,29.30,9.0,SE,15.0,23.0,0.07,,Overcast,140,2012-10-18 05:55:00
2:15 AM,55.4,53.6,94,29.29,10.0,SE,17.3,27.6,0.03,,Overcast,140,2012-10-18 06:15:00
2:35 AM,55.4,51.8,88,29.27,10.0,SE,15.0,23.0,0.04,,Overcast,130,2012-10-18 06:35:00
2:55 AM,55.4,51.8,88,29.26,10.0,SE,16.1,23.0,0.04,,Overcast,130,2012-10-18 06:55:00
3:15 AM,55.4,51.8,88,29.24,10.0,SE,18.4,23.0,0.01,,Overcast,130,2012-10-18 07:15:00
3:35 AM,55.4,51.8,88,29.22,10.0,ESE,16.1,28.8,0.01,,Overcast,120,2012-10-18 07:35:00
3:55 AM,55.4,51.8,88,29.20,10.0,ESE,18.4,25.3,0.01,,Overcast,120,2012-10-18 07:55:00
4:15 AM,55.4,51.8,88,29.20,10.0,ESE,21.9,27.6,N/A,,Overcast,120,2012-10-18 08:15:00
4:35 AM,55.4,51.8,88,29.18,9.0,ESE,21.9,27.6,0.01,,Overcast,110,2012-10-18 08:35:00
4:55 AM,55.4,51.8,88,29.17,10.0,ESE,21.9,31.1,0.01,,Overcast,110,2012-10-18 08:55:00
5:15 AM,55.4,51.8,88,29.16,10.0,ESE,24.2,32.2,N/A,,Overcast,110,2012-10-18 09:15:00
5:35 AM,57.2,51.8,82,29.15,10.0,SE,25.3,35.7,N/A,,Overcast,130,2012-10-18 09:35:00
5:55 AM,55.4,51.8,88,29.16,10.0,SSE,19.6,29.9,N/A,,Overcast,150,2012-10-18 09:55:00
6:15 AM,55.4,51.8,88,29.16,10.0,SSE,23.0,31.1,N/A,,Overcast,160,2012-10-18 10:15:00
6:35 AM,53.6,50.0,88,29.18,10.0,SSE,19.6,26.5,N/A,,Overcast,150,2012-10-18 10:35:00
6:55 AM,53.6,50.0,88,29.19,10.0,SSE,15.0,24.2,N/A,,Overcast,150,2012-10-18 10:55:00
7:35 AM,53.6,50.0,88,29.20,10.0,South,11.5,20.7,N/A,,Overcast,170,2012-10-18 11:35:00
7:55 AM,53.6,48.2,82,29.20,9.0,South,15.0,18.4,0.02,,Overcast,170,2012-10-18 11:55:00
8:15 AM,51.8,48.2,88,29.21,10.0,SSE,11.5,-,0.02,,Overcast,160,2012-10-18 12:15:00
8:35 AM,51.8,48.2,88,29.21,7.0,SSE,11.5,-,0.05,,Overcast,160,2012-10-18 12:35:00
8:55 AM,51.8,48.2,88,29.21,6.0,SSE,9.2,-,0.07,,Overcast,160,2012-10-18 12:55:00
9:15 AM,51.8,48.2,88,29.22,5.0,South,9.2,-,0.03,,Overcast,170,2012-10-18 13:15:00
9:35 AM,51.8,48.2,88,29.22,5.0,South,6.9,-,0.07,,Overcast,170,2012-10-18 13:35:00
9:55 AM,51.8,48.2,88,29.22,5.0,South,6.9,-,0.10,,Overcast,180,2012-10-18 13:55:00
10:15 AM,51.8,48.2,88,29.22,5.0,SSW,8.1,-,0.02,,Overcast,200,2012-10-18 14:15:00
10:35 AM,51.8,48.2,88,29.22,7.0,SSW,10.4,-,0.04,,Overcast,200,2012-10-18 14:35:00
10:55 AM,51.8,48.2,88,29.23,6.0,South,8.1,-,0.04,,Mostly Cloudy,190,2012-10-18 14:55:00
11:15 AM,51.8,48.2,88,29.22,9.0,SSW,8.1,-,N/A,,Mostly Cloudy,210,2012-10-18 15:15:00
11:35 AM,51.8,48.2,88,29.23,10.0,SSW,5.8,-,0.01,,Overcast,200,2012-10-18 15:35:00
11:55 AM,51.8,48.2,88,29.23,10.0,South,6.9,-,0.01,,Overcast,190,2012-10-18 15:55:00
12:15 PM,51.8,48.2,88,29.24,10.0,South,10.4,-,N/A,,Overcast,190,2012-10-18 16:15:00
12:35 PM,51.8,48.2,88,29.25,10.0,SSW,11.5,17.3,0.01,,Overcast,200,2012-10-18 16:35:00
12:55 PM,51.8,46.4,82,29.25,10.0,SSW,12.7,-,0.01,,Overcast,210,2012-10-18 16:55:00
1:15 PM,51.8,48.2,88,29.26,10.0,SSW,10.4,-,N/A,,Overcast,200,2012-10-18 17:15:00
1:35 PM,51.8,46.4,82,29.26,10.0,South,10.4,-,N/A,,Mostly Cloudy,190,2012-10-18 17:35:00
1:55 PM,51.8,46.4,82,29.28,10.0,South,11.5,-,N/A,,Overcast,190,2012-10-18 17:55:00
2:15 PM,51.8,44.6,76,29.28,10.0,SSW,9.2,16.1,N/A,,Overcast,200,2012-10-18 18:15:00
2:35 PM,51.8,46.4,82,29.29,10.0,South,6.9,-,N/A,,Overcast,190,2012-10-18 18:35:00
2:55 PM,51.8,44.6,76,29.29,10.0,South,6.9,-,N/A,,Overcast,190,2012-10-18 18:55:00
3:15 PM,51.8,46.4,82,29.30,10.0,SSE,11.5,16.1,N/A,,Overcast,160,2012-10-18 19:15:00
3:35 PM,51.8,46.4,82,29.31,5.0,SSW,13.8,24.2,N/A,,Overcast,200,2012-10-18 19:35:00
3:55 PM,50.0,46.4,87,29.32,10.0,SSW,12.7,-,N/A,,Overcast,210,2012-10-18 19:55:00
4:15 PM,50.0,44.6,82,29.33,10.0,SSW,11.5,-,N/A,,Overcast,200,2012-10-18 20:15:00
4:35 PM,50.0,44.6,82,29.35,10.0,South,9.2,-,N/A,,Overcast,180,2012-10-18 20:35:00
4:55 PM,50.0,42.8,76,29.35,10.0,South,11.5,19.6,N/A,,Overcast,180,2012-10-18 20:55:00
5:15 PM,50.0,42.8,76,29.36,10.0,South,13.8,21.9,N/A,,Overcast,170,2012-10-18 21:15:00
5:35 PM,50.0,42.8,76,29.37,10.0,South,13.8,20.7,N/A,,Overcast,180,2012-10-18 21:35:00
5:55 PM,50.0,41.0,71,29.38,10.0,South,15.0,21.9,N/A,,Overcast,170,2012-10-18 21:55:00
6:15 PM,48.2,41.0,76,29.39,10.0,South,12.7,21.9,N/A,,Scattered Clouds,180,2012-10-18 22:15:00
6:35 PM,48.2,39.2,71,29.40,10.0,South,11.5,17.3,N/A,,Partly Cloudy,170,2012-10-18 22:35:00
6:55 PM,48.2,41.0,76,29.41,10.0,South,12.7,16.1,N/A,,Partly Cloudy,170,2012-10-18 22:55:00
7:15 PM,48.2,41.0,76,29.42,10.0,South,10.4,18.4,N/A,,Partly Cloudy,180,2012-10-18 23:15:00
7:35 PM,46.4,41.0,81,29.43,10.0,South,11.5,-,N/A,,Partly Cloudy,170,2012-10-18 23:35:00
7:55 PM,48.2,41.0,76,29.44,10.0,South,9.2,-,N/A,,Mostly Cloudy,190,2012-10-18 23:55:00
8:15 PM,48.2,41.0,76,29.45,10.0,South,11.5,16.1,N/A,,Overcast,190,2012-10-19 00:15:00
8:35 PM,48.2,39.2,71,29.45,10.0,South,12.7,18.4,N/A,,Overcast,180,2012-10-19 00:35:00
8:55 PM,48.2,39.2,71,29.46,10.0,South,12.7,-,N/A,,Mostly Cloudy,180,2012-10-19 00:55:00
9:15 PM,48.2,39.2,71,29.47,10.0,South,8.1,-,N/A,,Overcast,170,2012-10-19 01:15:00
9:35 PM,48.2,39.2,71,29.47,10.0,South,10.4,-,N/A,,Overcast,180,2012-10-19 01:35:00
9:55 PM,48.2,39.2,71,29.48,10.0,South,12.7,-,N/A,,Partly Cloudy,180,2012-10-19 01:55:00
10:15 PM,48.2,37.4,66,29.49,10.0,South,11.5,-,N/A,,Scattered Clouds,170,2012-10-19 02:15:00
10:35 PM,46.4,37.4,71,29.50,10.0,South,10.4,17.3,N/A,,Mostly Cloudy,170,2012-10-19 02:35:00
10:55 PM,46.4,39.2,76,29.50,10.0,South,11.5,17.3,N/A,,Mostly Cloudy,170,2012-10-19 02:55:00
11:15 PM,46.4,39.2,76,29.50,10.0,SSE,9.2,-,N/A,,Overcast,160,2012-10-19 03:15:00
11:35 PM,46.4,39.2,76,29.50,10.0,South,9.2,-,N/A,,Overcast,180,2012-10-19 03:35:00
11:55 PM,48.2,39.2,71,29.50,10.0,SSE,11.5,-,N/A,,Mostly Cloudy,150,2012-10-19 03:55:00